Cheyenne, WY

2:38 PM MST on December 10, 2016 (GMT -0700)
Cheyenne

Weather History for KCYS - January, 2014

Change the Weather History Date:

Wednesday, January 29, 2014

  Actual Average Record
Temperature  
Mean Temperature 35 °F 28 °F  
Max Temperature 44 °F 39 °F 63 °F (1920)
Min Temperature 25 °F 18 °F -18 °F (1951)
Degree Days  
Heating Degree Days 30 37  
Month to date heating degree days 1042 1049  
Since 1 July heating degree days 3942 3952  
Cooling Degree Days 0 0  
Month to date cooling degree days 0 0  
Year to date cooling degree days 0 0  
Moisture  
Dew Point 18 °F    
Average Humidity 46    
Maximum Humidity 58    
Minimum Humidity 33    
Precipitation  
Precipitation 0.00 in 0.02 in 0.18 in (1956)
Month to date precipitation 0.69 0.31  
Year to date precipitation 0.69 0.31  
Snow  
Snow 0.00 in 0.20 in 2.20 in (1979)
Month to date snowfall 11.0 5.5  
Since 1 July snowfall 36.7 28.2  
Snow Depth 2.00 in    
Sea Level Pressure  
Sea Level Pressure 29.74 in    
Wind  
Wind Speed 20 mph (West)    
Max Wind Speed 47 mph    
Max Gust Speed 62 mph    
Visibility 10 miles    
Events      
T = Trace of Precipitation, MM = Missing Value Source: NWS Daily Summary

Daily Weather History Graph

Daily Weather History Graph

Search for Another Location

Airport or City:

Trip Planner

Search our weather history database for the weather conditions in past years. The results will help you decide how hot, cold, wet, or windy it might be!

Date:

Astronomy

Jan. 29, 2014 Rise Set
Actual Time 7:12 AM MST 5:12 PM MST
Civil Twilight 6:43 AM MST 5:41 PM MST
Nautical Twilight 6:10 AM MST 6:14 PM MST
Astronomical Twilight 5:37 AM MST 6:47 PM MST
Moon 5:51 AM MST (1/29) 4:14 PM MST (1/29)
Length of Visible Light 10h 58m
Length of Day
9h 59m
Waning Crescent, 2% of the Moon is Illuminated
Jan 29
Waning Crescent
Jan 30
New
Feb 6
First Quarter
Feb 14
Full
Feb 22
Last Quarter

Hourly Weather History & Observations

Time (MST) Temp. Windchill Dew Point Humidity Pressure Visibility Wind Dir Wind Speed Gust Speed Precip Events Conditions
12:53 AM 27.0 °F 15.6 °F 3.9 °F 37% 30.04 in 10.0 mi WNW 13.8 mph - N/A   Clear
1:53 AM 28.0 °F 17.0 °F 5.0 °F 38% 30.00 in 10.0 mi WNW 13.8 mph 25.3 mph N/A   Clear
2:53 AM 28.0 °F 19.3 °F 3.9 °F 36% 29.99 in 10.0 mi WNW 9.2 mph 19.6 mph N/A   Clear
3:53 AM 27.0 °F - 1.9 °F 34% 29.98 in 10.0 mi Calm Calm - N/A   Clear
4:53 AM 28.0 °F 18.6 °F 5.0 °F 38% 29.99 in 10.0 mi WSW 10.4 mph - N/A   Clear
5:53 AM 28.9 °F 17.3 °F 8.1 °F 41% 29.98 in 10.0 mi West 16.1 mph 21.9 mph N/A   Clear
6:53 AM 28.0 °F 18.6 °F 12.9 °F 53% 30.01 in 10.0 mi South 10.4 mph - N/A   Clear
7:53 AM 30.9 °F 17.2 °F 17.1 °F 57% 29.97 in 10.0 mi West 25.3 mph 35.7 mph N/A   Clear
8:53 AM 34.0 °F 20.1 °F 19.0 °F 54% 29.91 in 10.0 mi West 31.1 mph 39.1 mph N/A   Clear
9:53 AM 36.0 °F 23.9 °F 21.0 °F 55% 29.93 in 10.0 mi West 25.3 mph 33.4 mph N/A   Clear
10:53 AM 39.0 °F 28.8 °F 21.9 °F 50% 29.89 in 10.0 mi WSW 21.9 mph 28.8 mph N/A   Clear
11:53 AM 41.0 °F 30.9 °F 23.0 °F 49% 29.82 in 10.0 mi West 24.2 mph 33.4 mph N/A   Clear
12:53 PM 42.1 °F 31.1 °F 23.0 °F 47% 29.75 in 10.0 mi West 31.1 mph 43.7 mph N/A   Clear
1:53 PM 43.0 °F 33.8 °F 23.0 °F 45% 29.70 in 10.0 mi WSW 23.0 mph 39.1 mph N/A   Clear
2:53 PM 43.0 °F 36.8 °F 19.9 °F 40% 29.66 in 10.0 mi SW 11.5 mph - N/A   Clear
3:53 PM 41.0 °F 32.5 °F 21.0 °F 45% 29.64 in 10.0 mi SSW 17.3 mph 25.3 mph N/A   Mostly Cloudy
4:43 PM 42.8 °F 32.9 °F 21.2 °F 42% 29.59 in 10.0 mi West 26.5 mph 34.5 mph N/A   Clear
4:53 PM 43.0 °F 33.1 °F 21.0 °F 42% 29.59 in 10.0 mi West 26.5 mph 41.4 mph N/A   Clear
5:53 PM 43.0 °F 37.7 °F 21.9 °F 43% 29.56 in 10.0 mi SW 9.2 mph 24.2 mph N/A   Overcast
6:53 PM 42.1 °F 36.6 °F 23.0 °F 47% 29.50 in 10.0 mi South 9.2 mph - N/A   Clear
7:53 PM 42.1 °F 30.1 °F 25.0 °F 51% 29.40 in 10.0 mi West 38.0 mph 44.9 mph N/A   Clear
8:53 PM 42.1 °F 30.3 °F 25.0 °F 51% 29.40 in 10.0 mi West 36.8 mph 51.8 mph N/A   Clear
9:53 PM 43.0 °F 33.5 °F 26.1 °F 51% 29.39 in 10.0 mi West 24.2 mph 34.5 mph N/A   Clear
10:53 PM 44.1 °F 34.8 °F 27.0 °F 51% 29.37 in 10.0 mi West 25.3 mph 33.4 mph N/A   Scattered Clouds
11:53 PM 39.9 °F 28.8 °F 30.9 °F 70% 29.43 in 10.0 mi West 27.6 mph 39.1 mph N/A   Overcast